Terminal Aerodrome Forecast
Issued by NWS Jackson, MS

Home | Current Version | Previous Version | Text Only | Print | Product List | Glossary On
Versions: 1 2 3 4 5 6 7 8 9 10 11 12
000
FTUS44 KJAN 020500 RRA
TAFGLH
TAF
KGLH 020541Z 0206/0306 16008KT P6SM SCT060
     FM020800 17007KT 6SM BR BKN015 BKN035
     FM021600 19012G21KT P6SM VCTS BKN050CB=

USA.gov is the U.S. government's official web portal to all federal, state and local government web resources and services.